FW2218 Weather Reports


Display with metric or nautical units.
time (UTC)temp
F
wind
direction
speed
MPH
gust
MPH
rain 1hr
in
rain 24hr
in
rain mn
in
humidity
%
barometer
mb
20260506101529 60 30 3.0 7.0 0.00 0.00 0.00 70 1009.8
20260506100054 60 311 4.0 11.0 0.00 0.00 0.00 70 1009.7
20260506094533 59 285 6.0 14.0 0.00 0.00 0.00 72 1009.7
20260506091532 59 280 5.0 11.0 0.00 0.00 0.00 75 1009.6
20260506090033 59 276 3.0 9.0 0.00 0.00 0.00 75 1009.6
20260506084530 59 275 3.0 9.0 0.00 0.00 0.00 75 1009.5
20260506083029 59 278 0.0 6.0 0.00 0.00 0.00 75 1009.4
20260506071531 60 300 3.0 8.0 0.00 0.00 0.00 73 1008.7
20260506070110 60 291 3.0 11.0 0.00 0.00 0.00 73 1008.7
20260506061531 60 293 3.0 6.0 0.00 0.00 0.00 73 1008.4
20260506060108 60 304 5.0 11.0 0.00 0.00 0.00 72 1008.3
20260506044531 62 40 3.0 8.0 0.00 0.00 0.00 68 1007.5
20260506041531 64 23 3.0 10.0 0.00 0.00 0.00 65 1007.2
20260506040107 65 245 0.0 5.0 0.00 0.00 0.00 63 1006.9
20260506033030 65 21 3.0 8.0 0.00 0.00 0.00 63 1006.5
20260506031530 66 79 1.0 6.0 0.00 0.00 0.00 61 1006.2
20260506024605 67 304 3.0 12.0 0.00 0.00 0.00 59 1005.8
20260506023107 69 289 5.0 15.0 0.00 0.00 0.00 58 1005.7
20260506021556 70 284 6.0 14.0 0.00 0.00 0.00 56 1005.7
20260506020026 71 282 4.0 10.0 0.00 0.00 0.00 56 1005.7
20260506014531 71 289 3.0 7.0 0.00 0.00 0.00 55 1005.6
20260506013031 72 281 6.0 15.0 0.00 0.00 0.00 54 1005.4
20260506004532 73 285 8.0 19.0 0.00 0.00 0.00 52 1005.4
20260506003030 73 284 7.0 16.0 0.00 0.00 0.00 52 1005.3
20260506001541 74 292 7.0 18.0 0.00 0.00 0.00 51 1005.4
20260506000030 74 287 8.0 18.0 0.00 0.00 0.00 50 1005.4
20260505234531 75 294 8.0 20.0 0.00 0.00 0.00 50 1005.5
20260505233038 75 292 8.0 18.0 0.00 0.00 0.00 50 1005.5
20260505231531 75 291 8.0 18.0 0.00 0.00 0.00 50 1005.6
20260505230037 75 291 9.0 20.0 0.00 0.00 0.00 50 1005.7
20260505224531 75 292 9.0 19.0 0.00 0.00 0.00 50 1005.8
20260505220030 75 291 8.0 17.0 0.00 0.00 0.00 50 1006.2
20260505214532 75 294 9.0 19.0 0.00 0.00 0.00 49 1006.4
20260505213029 74 292 8.0 17.0 0.00 0.00 0.00 51 1006.4
20260505211530 74 292 8.0 17.0 0.00 0.00 0.00 51 1006.6
20260505210029 74 291 8.0 19.0 0.00 0.00 0.00 52 1006.7
20260505204531 73 293 8.0 18.0 0.00 0.00 0.00 51 1006.9
20260505203032 72 292 9.0 18.0 0.00 0.00 0.00 52 1007.0
20260505200031 72 294 8.0 19.0 0.00 0.00 0.00 53 1007.1
20260505193103 71 298 9.0 21.0 0.00 0.00 0.00 54 1007.4
20260505191605 70 301 9.0 18.0 0.00 0.00 0.00 55 1007.5
20260505190029 70 298 8.0 18.0 0.00 0.00 0.00 55 1007.6
20260505181529 69 294 9.0 21.0 0.00 0.00 0.00 58 1007.8
20260505174530 67 298 9.0 18.0 0.00 0.00 0.00 60 1007.8
20260505173103 67 294 8.0 18.0 0.00 0.00 0.00 60 1007.9
20260505171531 67 296 7.0 16.0 0.00 0.00 0.00 61 1007.8
20260505170106 66 294 8.0 19.0 0.00 0.00 0.00 62 1007.8
20260505164530 65 291 8.0 21.0 0.00 0.00 0.00 64 1007.8
20260505163032 64 291 8.0 18.0 0.00 0.00 0.00 65 1007.9
20260505161532 64 293 7.0 16.0 0.00 0.00 0.00 66 1007.9
20260505151533 62 291 6.0 15.0 0.00 0.00 0.00 70 1007.6
20260505124532 58 284 5.0 11.0 0.00 0.00 0.00 76 1006.3
20260505123032 58 285 5.0 13.0 0.00 0.00 0.00 75 1006.0
20260505121608 59 283 4.0 10.0 0.00 0.00 0.00 74 1005.9
20260505120030 60 280 5.0 11.0 0.00 0.00 0.00 72 1005.8
20260505114528 61 280 8.0 16.0 0.00 0.00 0.00 72 1005.7
20260505111528 60 281 4.0 8.0 0.00 0.00 0.00 75 1005.5